This demonstration page uses our WeatherBlox Daily Observations layout. Learn more.

Left ArrowRight Arrow

40.92945, -100.16068

Hourly Observations for February 28, 2021

Temp ( °F °C ) Dew Point ( °F °C ) Humidity (%) Winds ( mph kmh ) Pressure ( in mb ) Visibility ( mi km ) Precip ( " mm )
12:15 am 00:15 Clear 30 -1 27 -2.6 89 89 WNW 7 11 29.96 1014 10 16.0934 N/A
12:35 am 00:35 Clear 30 -1.1 27 -2.6 90 90 WNW 7 11 29.97 1015 10 16.0934 N/A
12:55 am 00:55 Clear 30 -1 27 -2.6 89 89 WNW 10 17 29.96 1014 10 16.0934 N/A
1:15 am 01:15 Clear 30 -1.3 27 -3 88 88 WNW 8 13 29.97 1015 10 16.0934 N/A
1:35 am 01:35 Clear 30 -1 27 -2.9 87 87 W 5 7 29.98 1015 10 16.0934 N/A
1:55 am 01:55 Clear 30 -1 27 -2.9 87 87 NW 6 9 29.98 1015 10 16.0934 N/A
2:15 am 02:15 Clear 29 -1.6 26 -3.4 88 88 N N/A 29.98 1015 10 16.0934 N/A
2:35 am 02:35 Clear 29 -1.7 26 -3.5 88 88 NW 5 7 29.98 1015 10 16.0934 N/A
2:55 am 02:55 Clear 28 -2 26 -3.5 90 90 NW 7 11 29.98 1015 10 16.0934 N/A
3:15 am 03:15 Clear 28 -2.2 26 -3.5 91 91 NW 7 11 29.98 1015 10 16.0934 N/A
3:35 am 03:35 Clear 28 -2.2 26 -3.3 92 92 NW 7 11 29.98 1015 10 16.0934 N/A
3:55 am 03:55 Clear 28 -2.3 26 -3.5 92 92 WNW 6 9 29.99 1016 10 16.0934 N/A
4:15 am 04:15 Mostly Cloudy 28 -2.1 26 -3.2 92 92 WNW 6 9 30.01 1016 10 16.0934 N/A
4:35 am 04:35 Cloudy 30 -1.2 28 -2.4 92 92 W 8 13 30.01 1016 10 16.0934 N/A
4:55 am 04:55 Cloudy 31 -0.8 28 -2.1 91 91 WNW 9 15 30.01 1016 10 16.0934 N/A
5:15 am 05:15 Cloudy 32 -0.2 29 -1.7 90 90 NW 16 26 30.02 1017 10 16.0934 N/A
5:35 am 05:35 Mostly Cloudy 31 -0.4 28 -2 89 89 NW 15 24 30.02 1017 10 16.0934 N/A
5:55 am 05:55 Partly Cloudy 31 -0.8 28 -2.1 91 91 NW 14 22 30.03 1017 10 16.0934 N/A
6:15 am 06:15 Mostly Cloudy 31 -0.6 26 -3.1 83 83 NW 18 30 30.04 1017 10 16.0934 N/A
6:35 am 06:35 Cloudy 31 -0.3 25 -3.7 78 78 NW 26 43 30.07 1018 10 16.0934 N/A
6:55 am 06:55 Cloudy 30 -1.2 24 -4.2 80 80 NW 20 31 30.09 1019 10 16.0934 N/A
7:15 am 07:15 Cloudy 29 -1.5 24 -4.6 80 80 NW 21 33 30.1 1019 10 16.0934 N/A
7:35 am 07:35 Cloudy 29 -1.6 24 -4.5 81 81 NNW 18 30 30.1 1019 10 16.0934 N/A
7:55 am 07:55 Cloudy 29 -1.9 22 -5.6 76 76 NNW 24 39 30.13 1020 10 16.0934 N/A
8:15 am 08:15 Cloudy 28 -2.3 21 -6 76 76 NNW 25 41 30.16 1021 10 16.0934 N/A
8:35 am 08:35 Cloudy 28 -2.5 21 -6.1 77 77 NNW 22 35 30.17 1022 10 16.0934 N/A
8:55 am 08:55 Cloudy 27 -3 20 -6.5 77 77 NNW 26 43 30.2 1023 10 16.0934 N/A
9:15 am 09:15 Cloudy 27 -2.6 20 -6.6 74 74 NNW 24 39 30.2 1023 10 16.0934 N/A
9:35 am 09:35 Cloudy 28 -2.5 20 -6.4 75 75 NNW 22 35 30.22 1023 10 16.0934 N/A
9:55 am 09:55 Cloudy 28 -2.4 21 -6.1 76 76 NNW 24 39 30.22 1023 10 16.0934 N/A
10:15 am 10:15 Cloudy 28 -2.4 20 -6.5 74 74 NNW 25 41 30.23 1024 10 16.0934 N/A
10:35 am 10:35 Mostly Cloudy 29 -1.9 20 -6.6 71 71 NNW 25 41 30.23 1024 10 16.0934 N/A
10:55 am 10:55 Mostly Cloudy 29 -1.4 20 -6.4 69 69 NNW 24 39 30.22 1023 10 16.0934 N/A
11:15 am 11:15 Partly Cloudy 30 -1.2 20 -6.7 67 67 NNW 22 35 30.23 1024 10 16.0934 N/A
11:35 am 11:35 Mostly Cloudy 30 -1 20 -6.4 67 67 NNW 20 31 30.24 1024 10 16.0934 N/A
12:15 pm 12:15 Cloudy 32 undefined 21 -6.1 64 64 NNW 20 31 30.23 1024 10 16.0934 N/A
12:35 pm 12:35 Partly Cloudy 32 undefined 21 -6.1 64 64 NNW 17 28 30.23 1024 10 16.0934 N/A
12:55 pm 12:55 Partly Cloudy 33 0.6 22 -5.7 63 63 NNW 14 22 30.22 1023 10 16.0934 N/A
1:15 pm 13:15 Partly Cloudy 33 0.4 22 -5.8 64 64 NNW 15 24 30.21 1023 10 16.0934 N/A
1:35 pm 13:35 Partly Cloudy 34 1.3 23 -4.9 64 64 NNW 10 17 30.2 1023 10 16.0934 N/A
1:55 pm 13:55 Sunny 35 1.5 23 -4.9 63 63 N 10 17 30.19 1022 10 16.0934 N/A
2:15 pm 14:15 Sunny 36 2 24 -4.6 62 62 NNW 12 19 30.19 1022 10 16.0934 N/A
2:35 pm 14:35 Sunny 36 2.4 24 -4.4 61 61 N 14 22 30.18 1022 10 16.0934 N/A
2:55 pm 14:55 Sunny 37 2.9 24 -4.2 60 60 N 10 17 30.18 1022 10 16.0934 N/A
3:15 pm 15:15 Sunny 38 3.2 25 -4 60 60 NNW 12 19 30.18 1022 10 16.0934 N/A
3:35 pm 15:35 Sunny 38 3.3 24 -4.4 57 57 NNW 9 15 30.17 1022 10 16.0934 N/A
3:55 pm 15:55 Sunny 39 3.7 25 -4.1 57 57 NNW 8 13 30.17 1022 10 16.0934 N/A
4:15 pm 16:15 Sunny 39 4.1 24 -4.2 55 55 NW 9 15 30.17 1022 10 16.0934 N/A
4:35 pm 16:35 Sunny 40 4.3 24 -4.3 54 54 NNW 10 17 30.17 1022 10 16.0934 N/A
4:55 pm 16:55 Sunny 40 4.2 24 -4.4 54 54 NW 6 9 30.17 1022 10 16.0934 N/A
5:10 pm 17:10 Sunny 40 4.2 24 -4.7 53 53 NNW 6 9 30.17 1022 10 16.0934 N/A
5:35 pm 17:35 Sunny 40 4.2 23 -4.8 52 52 NNW 6 9 30.17 1022 10 16.0934 N/A
5:55 pm 17:55 Sunny 39 4.1 23 -5 52 52 NW 5 7 30.17 1022 10 16.0934 N/A
6:15 pm 18:15 Sunny 38 3.3 25 -3.9 60 60 WNW 3 6 30.17 1022 10 16.0934 N/A
6:35 pm 18:35 Clear 37 2.5 23 -5.2 57 57 N N/A 30.18 1022 10 16.0934 N/A
6:55 pm 18:55 Clear 36 2.1 23 -4.8 61 61 N N/A 30.19 1022 10 16.0934 N/A
7:15 pm 19:15 Clear 35 1.8 22 -5.7 58 58 SW 6 9 30.2 1023 10 16.0934 N/A
7:35 pm 19:35 Clear 31 -0.3 24 -4.5 74 74 SW 6 9 30.23 1024 10 16.0934 N/A
7:55 pm 19:55 Clear 31 -0.8 24 -4.7 75 75 SW 6 9 30.24 1024 10 16.0934 N/A
8:15 pm 20:15 Clear 30 -1 24 -4.3 79 79 S 5 7 30.24 1024 10 16.0934 N/A
8:35 pm 20:35 Clear 29 -1.9 24 -4.5 83 83 SSW 7 11 30.25 1024 10 16.0934 N/A
8:55 pm 20:55 Clear 30 -1 24 -4.5 77 77 SSW 6 9 30.24 1024 10 16.0934 N/A
9:15 pm 21:15 Clear 29 -1.8 24 -4.5 82 82 S 7 11 30.26 1025 10 16.0934 N/A
9:35 pm 21:35 Clear 29 -1.7 24 -4.6 81 81 S 6 9 30.25 1025 10 16.0934 N/A
9:55 pm 21:55 Clear 29 -1.6 24 -4.6 80 80 S 6 9 30.26 1025 10 16.0934 N/A
10:15 pm 22:15 Clear 29 -1.9 24 -4.7 81 81 S 5 7 30.28 1025 10 16.0934 N/A
10:35 pm 22:35 Clear 29 -1.6 23 -5 78 78 SSW 8 13 30.27 1025 10 16.0934 N/A
10:55 pm 22:55 Clear 29 -1.5 24 -4.6 80 80 SSW 6 9 30.27 1025 10 16.0934 N/A
11:10 pm 23:10 Clear 30 -0.9 23 -4.9 75 75 SSW 6 9 30.28 1025 10 16.0934 N/A
11:35 pm 23:35 Clear 29 -1.5 23 -5 77 77 SSW 5 7 30.29 1026 10 16.0934 N/A
11:55 pm 23:55 Clear 30 -1.2 22 -5.5 73 73 SW 7 11 30.29 1026 10 16.0934 N/A

Powered by AerisWeather